Port Angeles, WA

3:59 PM PDT on May 24, 2017 (GMT -0700)
Fairchild International

Weather History for KCLM - March, 2013

Change the Weather History Date:

Sunday, March 3, 2013

  Actual Average Record
Temperature  
Mean Temperature 41 °F -  
Max Temperature 48 °F 48 °F 57 °F (2012)
Min Temperature 34 °F 35 °F 20 °F (1989)
Degree Days  
Heating Degree Days 24    
Moisture  
Dew Point 33 °F    
Average Humidity 72    
Maximum Humidity 92    
Minimum Humidity 56    
Precipitation  
Precipitation 0.00 in - - ()
Sea Level Pressure  
Sea Level Pressure 30.27 in    
Wind  
Wind Speed 11 mph (West)    
Max Wind Speed 17 mph    
Max Gust Speed 23 mph    
Visibility 10 miles    
Events      
Averages and records for this station are not official NWS values.
T = Trace of Precipitation, MM = Missing Value Source: NWS Daily Summary

Daily Weather History Graph

Daily Weather History Graph

Search for Another Location

Airport or City:

Trip Planner

Search our weather history database for the weather conditions in past years. The results will help you decide how hot, cold, wet, or windy it might be!

Date:

Astronomy

Mar. 03, 2013 Rise Set
Actual Time 6:50 AM PST 6:01 PM PST
Civil Twilight 6:19 AM PST 6:33 PM PST
Nautical Twilight 5:43 AM PST 7:09 PM PST
Astronomical Twilight 5:07 AM PST 7:45 PM PST
Moon 12:15 AM PST (3/3) 9:39 AM PST (3/3)
Length of Visible Light 12h 13m
Length of Day
11h 11m
Waning Gibbous, 62% of the Moon is Illuminated
Mar 3
Waning Gibbous
Mar 4
Last Quarter
Mar 11
New
Mar 19
First Quarter
Mar 27
Full

Hourly Weather History & Observations

Time (PST) Temp. Windchill Dew Point Humidity Pressure Visibility Wind Dir Wind Speed Gust Speed Precip Events Conditions
12:53 AM 41.0 °F 32.8 °F 30.9 °F 67% 30.21 in 10.0 mi West 16.1 mph 23.0 mph N/A   Scattered Clouds
1:53 AM 41.0 °F 34.7 °F 32.0 °F 70% 30.22 in 10.0 mi West 10.4 mph - N/A   Scattered Clouds
2:53 AM 41.0 °F 34.7 °F 30.9 °F 67% 30.23 in 10.0 mi West 10.4 mph - N/A   Partly Cloudy
3:53 AM 37.9 °F 32.1 °F 30.9 °F 76% 30.23 in 10.0 mi SW 8.1 mph - N/A   Scattered Clouds
4:53 AM 39.0 °F 34.0 °F 30.9 °F 73% 30.25 in 10.0 mi WSW 6.9 mph - N/A   Scattered Clouds
5:53 AM 39.9 °F 32.5 °F 30.9 °F 70% 30.26 in 10.0 mi WSW 12.7 mph - N/A   Overcast
6:53 AM 37.9 °F 28.9 °F 30.9 °F 76% 30.26 in 10.0 mi WSW 16.1 mph - N/A   Clear
7:53 AM 39.9 °F 33.9 °F 30.9 °F 70% 30.27 in 10.0 mi WSW 9.2 mph - N/A   Mostly Cloudy
8:53 AM 43.0 °F 37.7 °F 32.0 °F 65% 30.26 in 10.0 mi West 9.2 mph - N/A   Clear
9:53 AM 46.0 °F 41.9 °F 32.0 °F 58% 30.27 in 10.0 mi WSW 8.1 mph - N/A   Clear
10:53 AM 48.0 °F - 33.1 °F 56% 30.27 in 10.0 mi NW 11.5 mph - N/A   Clear
11:53 AM 48.0 °F - 36.0 °F 63% 30.27 in 10.0 mi NW 16.1 mph 23.0 mph N/A   Clear
12:53 PM 48.0 °F - 36.0 °F 63% 30.27 in 10.0 mi NW 13.8 mph 21.9 mph N/A   Clear
1:53 PM 46.9 °F - 37.0 °F 68% 30.27 in 10.0 mi WNW 12.7 mph 21.9 mph N/A   Clear
2:53 PM 46.9 °F - 36.0 °F 66% 30.27 in 10.0 mi NW 17.3 mph 23.0 mph N/A   Clear
3:53 PM 46.9 °F - 34.0 °F 61% 30.27 in 10.0 mi NW 10.4 mph - N/A   Clear
4:53 PM 45.0 °F 38.9 °F 36.0 °F 71% 30.29 in 10.0 mi NW 12.7 mph - N/A   Clear
5:53 PM 43.0 °F 39.5 °F 35.1 °F 74% 30.30 in 10.0 mi WNW 5.8 mph - N/A   Mostly Cloudy
6:53 PM 41.0 °F 39.0 °F 36.0 °F 82% 30.31 in 10.0 mi West 3.5 mph - N/A   Partly Cloudy
7:53 PM 37.0 °F 34.5 °F 34.0 °F 89% 30.31 in 10.0 mi SSW 3.5 mph - N/A   Partly Cloudy
8:53 PM 35.1 °F 32.2 °F 32.0 °F 89% 30.30 in 10.0 mi SW 3.5 mph - N/A   Partly Cloudy
9:53 PM 34.0 °F 28.0 °F 32.0 °F 92% 30.31 in 10.0 mi SW 6.9 mph - N/A   Clear
10:53 PM 35.1 °F 28.6 °F 30.9 °F 85% 30.31 in 10.0 mi SW 8.1 mph - N/A   Clear
11:53 PM 34.0 °F 27.2 °F 30.0 °F 85% 30.31 in 10.0 mi SW 8.1 mph - N/A   Clear